TimeAKST,TemperatureF,Dew PointF,Humidity,Sea Level PressureIn,VisibilityMPH,Wind Direction,Wind SpeedMPH,Gust SpeedMPH,PrecipitationIn,Events,Conditions,WindDirDegrees,DateUTC
12:53 AM,-20.0,-26.0,74,30.41,10.0,SW,6.9,-,N/A,,Clear,230,2013-02-18 09:53:00
1:53 AM,-20.0,-26.0,74,30.42,10.0,SW,5.8,-,N/A,,Clear,230,2013-02-18 10:53:00
3:53 AM,-20.0,-26.0,74,30.40,10.0,SSW,3.5,-,N/A,,Clear,210,2013-02-18 12:53:00
4:53 AM,-27.9,-36.0,65,30.39,10.0,Calm,Calm,-,N/A,,Clear,0,2013-02-18 13:53:00
5:53 AM,-27.0,-32.1,77,30.39,10.0,Calm,Calm,-,N/A,,Clear,0,2013-02-18 14:53:00
6:53 AM,-31.0,-9999,N/A,30.42,10.0,SSW,4.6,-,N/A,,Clear,210,2013-02-18 15:53:00
7:53 AM,-29.9,-9999,N/A,30.42,10.0,SSW,4.6,-,N/A,,Clear,210,2013-02-18 16:53:00
8:53 AM,-26.0,-32.1,73,30.42,10.0,SW,5.8,-,N/A,,Clear,220,2013-02-18 17:53:00
9:53 AM,-27.9,-34.1,73,30.41,10.0,SW,3.5,-,N/A,,Clear,220,2013-02-18 18:53:00
10:25 AM,-29.2,-36.4,68,30.38,2.0,SW,3.5,-,N/A,,Haze,230,2013-02-18 19:25:00
10:34 AM,-27.4,-34.6,69,30.38,7.0,WSW,3.5,-,N/A,,Clear,240,2013-02-18 19:34:00
10:53 AM,-26.0,-33.0,69,30.41,10.0,Calm,Calm,-,N/A,,Clear,0,2013-02-18 19:53:00
10:59 AM,-34.6,-9999,N/A,30.38,1.8,Calm,Calm,-,N/A,,Clear,0,2013-02-18 19:59:00
11:11 AM,-31.0,-9999,N/A,30.38,3.0,Calm,Calm,-,N/A,,Clear,0,2013-02-18 20:11:00
11:53 AM,-25.1,-31.0,74,30.41,4.0,NE,3.5,-,N/A,,Haze,40,2013-02-18 20:53:00
12:53 PM,-20.0,-26.0,74,30.38,9.0,NE,4.6,-,N/A,,Clear,50,2013-02-18 21:53:00
1:53 PM,-16.1,-23.1,71,30.38,10.0,NNE,8.1,-,N/A,,Clear,30,2013-02-18 22:53:00
2:53 PM,-11.9,-20.0,67,30.38,10.0,NNE,5.8,-,N/A,,Clear,30,2013-02-18 23:53:00
3:53 PM,-11.0,-20.0,64,30.35,10.0,NE,8.1,-,N/A,,Clear,40,2013-02-19 00:53:00
4:53 PM,-16.1,-23.1,71,30.32,10.0,NNE,5.8,-,N/A,,Clear,30,2013-02-19 01:53:00
5:53 PM,-9.0,-18.0,65,30.29,10.0,ENE,8.1,-,N/A,,Clear,70,2013-02-19 02:53:00
6:53 PM,-14.1,-20.9,71,30.30,10.0,NE,4.6,-,N/A,,Clear,40,2013-02-19 03:53:00
7:53 PM,-16.1,-23.1,71,30.30,10.0,Calm,Calm,-,N/A,,Clear,0,2013-02-19 04:53:00
8:53 PM,-15.0,-22.0,71,30.28,10.0,ENE,4.6,-,N/A,,Clear,70,2013-02-19 05:53:00
9:53 PM,-18.0,-26.0,67,30.28,10.0,Calm,Calm,-,N/A,,Clear,0,2013-02-19 06:53:00
10:53 PM,-22.0,-27.0,77,30.29,10.0,Calm,Calm,-,N/A,,Clear,0,2013-02-19 07:53:00
11:53 PM,-24.0,-29.9,74,30.27,9.0,Calm,Calm,-,N/A,,Clear,0,2013-02-19 08:53:00